Погода в Болдове

Россия / Республика Мордовия     53°59′11″N   44°38′26″E
темп.,
°C
ветер,
м/с
пор.,
м/с
влажн.,
%
обл.,
%
осадки,
мм/ч
давл.,
гПа
погр.,
м
17 мая, пн
пн1700:00+17в1282100 0.0 101512
03:00+16в228636 0.0 101615
06:00+18в237723 0.0 101689
09:00+23ю46569 0.0 1016421
12:00+28ю463979 0.0 1016924
15:00+28ю483794 0.0 10162480
18:00+25ююв3353100 0.0 101651
21:00+20вюв335159 0.0 101629
18 мая, вт
вт1800:00+17вюв4106563 0.0 1016161
03:00+16вюв476817 0.0 101689
06:00+17вюв486781 0.0 1016149
09:00+23вюв510486 0.0 1015421
12:00+27юв69365 0.0 10151349
15:00+29юв58395 0.0 10142017
18:00+25юв38590 0.0 1014221
21:00+20в48650 0.0 1014102
19 мая, ср
ср1900:00+18вюв515583 0.0 1014261
03:00+17вюв514510 0.0 1014217
06:00+17вюв514602 0.0 1014248
09:00+23вюв613515 0.0 1013526
12:00+27вюв711424 0.0 10131470
15:00+27вюв810430 0.0 10121420
18:00+24вюв6115882 0.0 1011348
21:00+21вюв10196295 0.0 1012747
20 мая, чт
чт2000:00+18юв5147638 0.6 1011335
03:00+17вюв6158036 0.8 1011515
06:00+17юв7157811 0.1 1011591
09:00+21ююв8106746 0.1 1011986
12:00+20ююз696799 0.2 10131156
15:00+18ю6970100 0.4 1014654
18:00+18ююз5770100 0.1 1013796
21:00+15ююз3884100 0.1 1014195
21 мая, пт
пт2100:00+13юз35904 0.0 101597
03:00+11юз23945 0.0 101642
06:00+13зюз47885 0.0 1017260
09:00+17з4472100 0.0 1018786
12:00+19з45520 0.0 10191249
15:00+20з555132 0.0 10201547
18:00+19зюз23645 0.0 1020626
21:00+15юз228011 0.0 102114